Вернуться в каталог

STARLINK-34322

АктивенСвязьVLEO
NORAD 64702·PAYLOAD·🇺🇸 United States

Запущен Jun 28, 2025 с Vandenberg Space Force Base

Loading…

Ближайшие Пролёты (ближайшие 24 часа)

TLE

СвежийSource: CelesTrak SupGP

Эпоха: Sep 15, 2026, 03:12 UTC

1 64702C 25142G   26258.13381944 -.00047248  00000+0 -16438-2 0  2587
2 64702  70.0012 195.2471 0003000 271.5774 171.1123 15.29599212    18

Отслеживайте STARLINK-34322 в реальном времени с AllMySat

Download on the App Store